When you browse on this site, cookies collect data to enhance your experience and personalize the content and advertising you see.
Visit our Privacy Policy to learn more. By continuing to use the site, you agree to this use of cookies and data.
  • In Hungary
  • List of Countries
  • For 7 days
  • Water Temperature
  • Satellite Maps
  • Weather Map
  • News
  • Weather Widgets
  • user-avatar
    Login

    Hourly Weather Mijas

    Today, 20 November, Tuesday

    Time Temperature Precipitation Wind Pressure Humidity
    00:00 +9°C° 0 mm 5 mps 708 mmHg 91%
    01:00 +9°C° 0.1 mm 5 mps 708 mmHg 90%
    02:00 +9°C° 0.1 mm 5 mps 708 mmHg 90%
    03:00 +9°C° 0.1 mm 5 mps 708 mmHg 90%
    04:00 +9°C° 0.9 mm 6 mps 707 mmHg 90%
    05:00 +9°C° 0.9 mm 6 mps 707 mmHg 91%
    06:00 +10°C° 0 mm 6 mps 707 mmHg 91%
    07:00 +10°C° 0.6 mm 6 mps 707 mmHg 91%
    08:00 +10°C° 0.6 mm 7 mps 708 mmHg 90%
    09:00 +11°C° 0.6 mm 7 mps 708 mmHg 90%
    10:00 +11°C° 0.1 mm 7 mps 709 mmHg 85%
    11:00 +12°C° 0.1 mm 7 mps 709 mmHg 80%
    12:00 +12°C° 0.1 mm 7 mps 710 mmHg 75%
    13:00 +12°C° 0.1 mm 7 mps 710 mmHg 74%
    14:00 +12°C° 0.1 mm 7 mps 710 mmHg 72%
    15:00 +12°C° 0.1 mm 8 mps 710 mmHg 71%
    16:00 +11°C° 0.1 mm 7 mps 711 mmHg 75%
    17:00 +11°C° 0.1 mm 6 mps 711 mmHg 79%
    18:00 +10°C° 0.1 mm 6 mps 711 mmHg 84%
    19:00 +10°C° 0.1 mm 6 mps 712 mmHg 85%
    20:00 +10°C° 0.1 mm 5 mps 712 mmHg 87%
    21:00 +9°C° 0.1 mm 5 mps 712 mmHg 89%
    22:00 +9°C° 0.2 mm 5 mps 713 mmHg 90%
    23:00 +9°C° 0.2 mm 5 mps 713 mmHg 90%

    Tomorrow, 21 November, Wednesday

    Time Temperature Precipitation Wind Pressure Humidity
    00:00 +10°C° 0.2 mm 4 mps 713 mmHg 91%
    01:00 +10°C° 0.2 mm 4 mps 713 mmHg 91%
    02:00 +10°C° 0.2 mm 4 mps 713 mmHg 91%
    03:00 +11°C° 0.2 mm 4 mps 713 mmHg 92%
    04:00 +11°C° 0.4 mm 4 mps 713 mmHg 92%
    05:00 +11°C° 0.4 mm 4 mps 713 mmHg 93%
    06:00 +11°C° 0.4 mm 4 mps 713 mmHg 93%
    07:00 +11°C° 0.3 mm 3 mps 714 mmHg 91%
    08:00 +12°C° 0.3 mm 3 mps 714 mmHg 89%
    09:00 +12°C° 0.3 mm 3 mps 714 mmHg 87%
    10:00 +13°C° 0.4 mm 3 mps 715 mmHg 84%
    11:00 +13°C° 0.4 mm 3 mps 715 mmHg 80%
    12:00 +14°C° 0.4 mm 3 mps 715 mmHg 76%
    13:00 +14°C° 0.3 mm 3 mps 715 mmHg 77%
    14:00 +14°C° 0.3 mm 3 mps 715 mmHg 77%
    15:00 +13°C° 0.3 mm 3 mps 715 mmHg 78%
    16:00 +14°C° 0.1 mm 2 mps 715 mmHg 81%
    17:00 +13°C° 0.1 mm 2 mps 715 mmHg 85%
    18:00 +12°C° 0.1 mm 1 mps 715 mmHg 89%
    19:00 +12°C° 0.1 mm 1 mps 716 mmHg 90%
    20:00 +12°C° 0.1 mm 1 mps 716 mmHg 90%
    21:00 +11°C° 0.1 mm 1 mps 716 mmHg 91%
    22:00 +11°C° 0 mm 1 mps 716 mmHg 91%
    23:00 +11°C° 0 mm 1 mps 716 mmHg 90%

    Day after tomorrow, 22 November, Thursday

    Time Temperature Precipitation Wind Pressure Humidity
    00:00 +11°C° 0 mm 1 mps 716 mmHg 90%
    01:00 +11°C° 0 mm 1 mps 716 mmHg 89%
    02:00 +11°C° 0 mm 1 mps 716 mmHg 89%
    03:00 +11°C° 0 mm 1 mps 716 mmHg 88%
    04:00 +11°C° 0 mm 1 mps 716 mmHg 87%
    05:00 +11°C° 0 mm 1 mps 716 mmHg 86%
    06:00 +11°C° 0 mm 1 mps 716 mmHg 84%
    07:00 +12°C° 0 mm 1 mps 716 mmHg 81%
    08:00 +12°C° 0 mm 1 mps 716 mmHg 78%
    09:00 +13°C° 0 mm 1 mps 717 mmHg 75%
    10:00 +14°C° 0.1 mm 1 mps 716 mmHg 72%
    11:00 +14°C° 0.1 mm 1 mps 716 mmHg 70%
    12:00 +15°C° 0.1 mm 1 mps 716 mmHg 67%
    13:00 +15°C° 0.3 mm 1 mps 716 mmHg 71%
    14:00 +14°C° 0.3 mm 1 mps 716 mmHg 75%
    15:00 +14°C° 0.3 mm 1 mps 715 mmHg 79%
    16:00 +13°C° 0.3 mm 1 mps 715 mmHg 82%
    17:00 +13°C° 0.3 mm 1 mps 716 mmHg 85%
    18:00 +13°C° 0.3 mm 1 mps 716 mmHg 88%
    19:00 +12°C° 0.2 mm 1 mps 716 mmHg 89%
    20:00 +12°C° 0.2 mm 1 mps 716 mmHg 89%
    21:00 +12°C° 0.2 mm 1 mps 716 mmHg 90%
    22:00 +12°C° 0.2 mm 1 mps 716 mmHg 90%
    23:00 +12°C° 0.2 mm 1 mps 716 mmHg 90%

    23 November, Friday

    Time Temperature Precipitation Wind Pressure Humidity
    00:00 +12°C° 0.2 mm 1 mps 716 mmHg 90%
    01:00 +12°C° 0.5 mm 1 mps 716 mmHg 91%
    02:00 +12°C° 0.5 mm 2 mps 715 mmHg 92%
    03:00 +12°C° 0.5 mm 2 mps 715 mmHg 92%
    04:00 +12°C° 0.7 mm 2 mps 715 mmHg 93%
    05:00 +12°C° 0.7 mm 2 mps 715 mmHg 93%
    06:00 +12°C° 0.7 mm 2 mps 715 mmHg 93%
    07:00 +12°C° 0.6 mm 2 mps 715 mmHg 93%
    08:00 +12°C° 0.6 mm 1 mps 716 mmHg 93%
    09:00 +12°C° 0.6 mm 1 mps 717 mmHg 93%
    10:00 +12°C° 0.4 mm 1 mps 717 mmHg 91%
    11:00 +12°C° 0.4 mm 1 mps 717 mmHg 88%
    12:00 +13°C° 0.4 mm 1 mps 717 mmHg 86%
    13:00 +13°C° 0 mm 2 mps 717 mmHg 80%
    14:00 +14°C° 0 mm 2 mps 716 mmHg 74%
    15:00 +14°C° 0 mm 3 mps 716 mmHg 68%
    16:00 +13°C° 0 mm 3 mps 717 mmHg 73%
    17:00 +12°C° 0 mm 3 mps 717 mmHg 77%
    18:00 +11°C° 0 mm 3 mps 717 mmHg 81%
    19:00 +10°C° 0 mm 3 mps 717 mmHg 83%
    20:00 +10°C° 0 mm 3 mps 718 mmHg 84%
    21:00 +9°C° 0 mm 3 mps 718 mmHg 85%
    22:00 +9°C° 0 mm 3 mps 718 mmHg 85%
    23:00 +9°C° 0 mm 3 mps 718 mmHg 86%

    24 November, Saturday

    Time Temperature Precipitation Wind Pressure Humidity
    00:00 +8°C° 0 mm 3 mps 718 mmHg 86%
    01:00 +8°C° 0 mm 3 mps 718 mmHg 85%
    02:00 +8°C° 0 mm 3 mps 718 mmHg 84%
    03:00 +8°C° 0 mm 3 mps 717 mmHg 84%
    04:00 +8°C° 0 mm 3 mps 718 mmHg 82%
    05:00 +7°C° 0 mm 3 mps 718 mmHg 81%
    06:00 +7°C° 0 mm 2 mps 718 mmHg 80%
    07:00 +8°C° 0 mm 2 mps 718 mmHg 75%
    08:00 +9°C° 0 mm 2 mps 719 mmHg 69%
    09:00 +11°C° 0 mm 1 mps 719 mmHg 64%
    10:00 +12°C° 0 mm 1 mps 719 mmHg 59%
    11:00 +14°C° 0 mm 1 mps 719 mmHg 53%
    12:00 +15°C° 0 mm 1 mps 718 mmHg 48%
    13:00 +15°C° 0 mm 1 mps 718 mmHg 48%
    14:00 +15°C° 0 mm 1 mps 718 mmHg 48%
    15:00 +15°C° 0 mm 1 mps 717 mmHg 48%
    16:00 +14°C° 0 mm 1 mps 717 mmHg 54%
    17:00 +13°C° 0 mm 1 mps 717 mmHg 60%
    18:00 +11°C° 0 mm 1 mps 717 mmHg 66%
    19:00 +11°C° 0 mm 1 mps 717 mmHg 68%
    20:00 +11°C° 0 mm 1 mps 718 mmHg 69%
    21:00 +10°C° 0 mm 1 mps 718 mmHg 71%
    22:00 +10°C° 0 mm 1 mps 718 mmHg 71%
    23:00 +10°C° 0 mm 1 mps 718 mmHg 72%

    25 November, Sunday

    Time Temperature Precipitation Wind Pressure Humidity
    00:00 +10°C° 0 mm 1 mps 717 mmHg 72%
    01:00 +8°C° 0 mm 2 mps 717 mmHg 73%
    02:00 +8°C° 0 mm 2 mps 717 mmHg 73%
    03:00 +8°C° 0 mm 2 mps 717 mmHg 74%
    04:00 +8°C° 0 mm 2 mps 717 mmHg 74%
    05:00 +8°C° 0 mm 2 mps 717 mmHg 74%
    06:00 +8°C° 0 mm 2 mps 717 mmHg 74%
    07:00 +9°C° 0 mm 2 mps 717 mmHg 72%
    08:00 +10°C° 0 mm 3 mps 718 mmHg 69%
    09:00 +11°C° 0 mm 3 mps 718 mmHg 67%
    10:00 +12°C° 0 mm 3 mps 718 mmHg 67%
    11:00 +12°C° 0 mm 4 mps 718 mmHg 68%
    12:00 +13°C° 0 mm 4 mps 718 mmHg 68%
    13:00 +13°C° 0 mm 4 mps 718 mmHg 69%
    14:00 +14°C° 0 mm 5 mps 717 mmHg 71%
    15:00 +14°C° 0 mm 5 mps 717 mmHg 72%
    16:00 +13°C° 0 mm 5 mps 717 mmHg 77%
    17:00 +13°C° 0 mm 5 mps 717 mmHg 82%
    18:00 +12°C° 0 mm 5 mps 717 mmHg 87%
    19:00 +12°C° 0 mm 5 mps 718 mmHg 88%
    20:00 +12°C° 0 mm 5 mps 718 mmHg 89%
    21:00 +11°C° 0 mm 4 mps 718 mmHg 90%
    22:00 +11°C° 0 mm 4 mps 718 mmHg 90%
    23:00 +11°C° 0 mm 4 mps 718 mmHg 91%
    Show more